Weather Roundup
Issued by NWS Chicago, IL

Home | Current Version | Previous Version | Text Only | Print | Product List | Glossary On
Versions: 1 2 3 4 5 6 7 8 9 10 11 12 13 14 15 16 17 18 19 20 21 22 23 24 25 26 27 28 29 30 31 32 33 34 35 36 37 38 39 40 41 42 43 44 45 46 47 48 49 50
000
NZUS59 KLOT 080912
HRRLOT

CHICAGO AREA WEATHER ROUNDUP
NATIONAL WEATHER SERVICE CHICAGO/ROMEOVILLE IL
300 AM CST THU DEC 08 2016

NOTE: "FAIR" INDICATES FEW OR NO CLOUDS BELOW 12,000 FEET WITH NO
SIGNIFICANT WEATHER AND/OR OBSTRUCTIONS TO VISIBILITY.

* THESE STATIONS ARE NOT UNDER NWS QUALITY CONTROL. THEY ALSO MAY NOT
  REPORT WEATHER SUCH AS PRECIPITATION OR FOG.

ILZ005-006-012>014-019>023-081000-
NORTHEAST ILLINOIS

CITY           SKY/WX    TMP DP  RH WIND       PRES   REMARKS
OHARE          FLURRIES  23  14  68 W20G26    30.15R WCI   8
MIDWAY         FLURRIES  24  13  62 W20G28    30.17S WCI  10
AURORA         CLOUDY    22  15  75 W22       30.18S WCI   6
LANSING*       CLOUDY    23  17  77 W17G30    30.18S HAZE    WCI   9
JOLIET*        CLOUDY    23  15  70 W15G22    30.21S WCI  10
WAUKEGAN       CLOUDY    23  14  68 W10G16    30.11S WCI  12
DUPAGE AIRPORT CLOUDY    22  12  65 W16G28    30.16R WCI   8
WHEELING       CLOUDY    23  13  65 W15G23    30.15S WCI  10
KANKAKEE*      CLOUDY    22  15  74 W18       30.22S WCI   8
MORRIS*        CLOUDY    22  14  72 W25       30.21S WCI   5
LEWIS AIRPORT* FLURRIES  22  18  85 W16G26    30.19S WCI   8
NORTHERLY ISL    N/A     24  15  68 W10         N/A  WCI  14
$$

WIZ051-052-058>065-066-070>072-081000-
SOUTHEAST WISCONSIN

CITY           SKY/WX    TMP DP  RH WIND       PRES   REMARKS
MILWAUKEE      FLURRIES  23  13  65 W13       30.09S WCI  11
KENOSHA*       CLOUDY    22  13  68 W18G26    30.11R WCI   7
RACINE*        CLOUDY    22  11  62 W13G22    30.12R WCI  10
BURLINGTON     FLURRIES  20  12  70 W16G28    30.11S WCI   6
WAUKESHA       CLOUDY    19  10  68 W22       30.09S WCI   3
WEST BEND      CLOUDY    21  14  73 W13       30.05S WCI   9
$$

INZ001>003-010>013-019-020-081000-
NORTHWEST INDIANA

CITY           SKY/WX    TMP DP  RH WIND       PRES   REMARKS
GARY*          FLURRIES  25  16  66 W16G28    30.18S WCI  13
MICHIGAN CITY* NOT AVBL
RENSSELAER*    NOT AVBL
VALPARAISO     CLOUDY    24  14  65 W17       30.17S WCI  11
$$

LMZ740>746-081000-
SOUTHERN LAKE MICHIGAN

STATION/POSITION TIME  SKY/WX   TEMP WIND        PRES    VSBY
                                AIR  DIR/SP/G
                 (UTC)          (F)  (DEG/KT/KT) (MB)    (MI)
HARRISON CRIB    0840            25  260/ 22/ 26   N/A
BURNHAM HARBOR   0900            24  260/  9/ 19   N/A
CALUMET HARBOR   0848            23  260/ 12/ 15 1021.0R
BURNS HARBOR     0840            26  260/ 21/ 29 1021.7F
MICHIGAN CITY    0840            26  230/ 27/ 31   N/A
$$

ABBREVIATIONS USED IN REMARKS
   TC - TEMPERATURE IN CELSIUS
  WCI - WIND CHILL INDEX
   HX - HEAT INDEX
  VSB - VISIBILITY
$$



USA.gov is the U.S. government's official web portal to all federal, state and local government web resources and services.